Wautoma, WI

12:38 PM CST on November 22, 2017 (GMT -0600)
Wautoma

Weather History for KY50 - December, 2012

Change the Weather History Date:

Sunday, December 30, 2012

  Actual Average (KPCZ) Record (KPCZ)
Temperature  
Mean Temperature 13 °F -  
Max Temperature 21 °F 25 °F 45 °F (1979)
Min Temperature 5 °F 10 °F -15 °F (1976)
Degree Days  
Heating Degree Days 52    
Moisture  
Dew Point 8 °F    
Average Humidity 83    
Maximum Humidity 92    
Minimum Humidity 65    
Precipitation  
Precipitation 0.00 in - - ()
Sea Level Pressure  
Sea Level Pressure 30.17 in    
Wind  
Wind Speed 5 mph (SW)    
Max Wind Speed 10 mph    
Max Gust Speed -    
Visibility 8 miles    
Events Snow    
Averages and records for this station are not official NWS values.
T = Trace of Precipitation, MM = Missing Value Source: NWS Daily Summary

Daily Weather History Graph

Daily Weather History Graph

Search for Another Location

Airport or City:

Trip Planner

Search our weather history database for the weather conditions in past years. The results will help you decide how hot, cold, wet, or windy it might be!

Date:

Astronomy

Dec. 30, 2012 Rise Set
Actual Time 7:31 AM CST 4:28 PM CST
Civil Twilight 6:58 AM CST 5:01 PM CST
Nautical Twilight 6:22 AM CST 5:37 PM CST
Astronomical Twilight 5:47 AM CST 6:12 PM CST
Moon 7:05 PM CST (12/30) 8:35 AM CST (12/30)
Length of Visible Light 10h 02m
Length of Day
8h 56m
Waning Gibbous, 95% of the Moon is Illuminated
Dec 30
Waning Gibbous
Jan 4
Last Quarter
Jan 11
New
Jan 18
First Quarter
Jan 26
Full

Hourly Weather History & Observations

Time (CST) Temp. Windchill Dew Point Humidity Pressure Visibility Wind Dir Wind Speed Gust Speed Precip Events Conditions
12:56 AM 14.0 °F 5.1 °F 11.1 °F 88% 30.19 in 10.0 mi West 5.8 mph - N/A   Overcast
1:56 AM 14.0 °F 3.9 °F 10.0 °F 84% 30.20 in 10.0 mi West 6.9 mph - N/A   Overcast
2:56 AM 14.0 °F 5.1 °F 10.0 °F 84% 30.21 in 10.0 mi WSW 5.8 mph - N/A   Overcast
3:56 AM 13.1 °F 1.8 °F 10.0 °F 88% 30.23 in 10.0 mi WSW 8.1 mph - N/A   Overcast
4:56 AM 12.0 °F -1.3 °F 9.1 °F 88% 30.24 in 9.0 mi West 10.4 mph - 0.00 in Snow Light Snow
5:56 AM 11.1 °F -0.6 °F 8.1 °F 87% 30.25 in 9.0 mi West 8.1 mph - 0.00 in   Overcast
6:12 AM 10.4 °F - 6.8 °F 85% 30.21 in 9.0 mi Calm Calm - N/A   Overcast
6:56 AM 8.1 °F - 6.1 °F 92% 30.27 in 8.0 mi Calm Calm - 0.00 in   Mostly Cloudy
7:09 AM 6.8 °F -3.5 °F 5.0 °F 92% 30.22 in 8.0 mi WSW 5.8 mph - N/A   Partly Cloudy
7:56 AM 6.1 °F -4.3 °F 4.1 °F 92% 30.27 in 6.0 mi SW 5.8 mph - N/A   Clear
8:56 AM 9.1 °F -0.7 °F 5.0 °F 83% 30.27 in 6.0 mi SW 5.8 mph - N/A   Clear
9:56 AM 11.1 °F -1.6 °F 6.1 °F 80% 30.30 in 8.0 mi WSW 9.2 mph - N/A   Clear
10:56 AM 14.0 °F 6.5 °F 7.2 °F 74% 30.29 in 9.0 mi SSW 4.6 mph - N/A   Clear
11:56 AM 17.1 °F - 8.1 °F 68% 30.25 in 10.0 mi Calm Calm - N/A   Clear
12:56 PM 20.1 °F 12.3 °F 10.0 °F 65% 30.22 in 10.0 mi SSW 5.8 mph - N/A   Clear
1:56 PM 21.0 °F 11.4 °F 11.1 °F 66% 30.19 in 10.0 mi South 8.1 mph - N/A   Clear
2:56 PM 21.0 °F 11.4 °F 11.1 °F 66% 30.17 in 10.0 mi SSW 8.1 mph - N/A   Clear
3:56 PM 18.1 °F 10.0 °F 11.1 °F 74% 30.15 in 10.0 mi SSE 5.8 mph - N/A   Clear
4:56 PM 15.1 °F 5.2 °F 10.0 °F 80% 30.14 in 9.0 mi SSE 6.9 mph - N/A   Clear
5:56 PM 14.0 °F 5.1 °F 10.4 °F 86% 30.08 in 8.0 mi SSE 5.8 mph - N/A   Clear
6:56 PM 12.0 °F 4.1 °F 9.1 °F 88% 30.10 in 8.0 mi SSE 4.6 mph - N/A   Clear
7:56 PM 13.1 °F - 10.0 °F 88% 30.07 in 7.0 mi Calm Calm - N/A   Mostly Cloudy
8:56 PM 9.1 °F - 7.2 °F 92% 30.04 in 6.0 mi Calm Calm - N/A   Clear
9:56 PM 6.1 °F - 4.1 °F 92% 30.02 in 3.0 mi Calm Calm - N/A   Clear
10:56 PM 5.0 °F - 3.0 °F 92% 29.99 in 4.0 mi Calm Calm - N/A   Clear
11:56 PM 5.0 °F - 3.0 °F 92% 29.96 in 6.0 mi Calm Calm - N/A   Clear